Location: ???????????
(54.6970°N, 39.1477°E)
Time: 02:45:57
(UTC+00:00)

Cosmos 494 Rocket - Pass Details

Date: 19 May 2025
Orbit: 737 x 767 km, 74.1° (Epoch: 14 June)

Event Time Altitude Azimuth Distance (km) Brightness Sun altitude
Exits shadow 22:27:56 21° 200° (SSW) 1,623 5.0 -13.9°
Maximum altitude 22:31:22 81° 115° (ESE) 762 3.9 -13.8°
Drops below altitude 10° 22:36:33 10° 29° (NNE) 2,283 7.9 -13.5°
Sets 22:38:56 0° 28° (NNE) 3,217 9.1 -13.4°
